Printer-friendly version

IAU Minor Planet Center

Minor Planet Center

MPEC 2006-M32 : 2006 MH10

The following Minor Planet Electronic Circular may be linked-to from your own Web pages, but must not otherwise be redistributed electronically.


Read MPEC 2006-M31 Read MPEC 2006-M33


M.P.E.C. 2006-M32                                Issued 2006 June 23, 09:31 UT

     The Minor Planet Electronic Circulars contain information on unusual
         minor planets and routine data on comets.  They are published
   on behalf of Commission 20 of the International Astronomical Union by the
          Minor Planet Center, Smithsonian Astrophysical Observatory,
                          Cambridge, MA 02138, U.S.A.

                  Supported in part by the Brinson Foundation
                  Supported in part by the TABASGO Foundation
             Prepared using the Tamkin Foundation Computer Network

                              MPC@CFA.HARVARD.EDU
          URL http://cfa-www.harvard.edu/iau/mpc.html  ISSN 1523-6714

                                   2006 MH10

Observations:
     K06M10H* C2006 06 22.25567 16 14 31.79 -19 52 13.9          18.9 R EM032644
     K06M10H  C2006 06 22.27592 16 14 27.50 -19 53 40.2          19.2 R EM032644
     K06M10H  C2006 06 22.29734 16 14 22.96 -19 55 12.0          18.9 R EM032644
     K06M10H  C2006 06 22.94582 16 12 18.82 -20 41 48.3                 EM032J95
     K06M10H  C2006 06 22.94869 16 12 18.16 -20 42 00.5          19.4 R EM032J95
     K06M10H  C2006 06 23.03870 16 12 01.18 -20 47 39.8          18.9 R EM032I77
     K06M10H  C2006 06 23.04347 16 12 00.10 -20 47 59.6          19.2 R EM032I77
     K06M10H  C2006 06 23.04895 16 11 58.93 -20 48 23.2          19.2 R EM032I77
     K06M10H 5C2006 06 23.18403 16 11 34.16 -20 58 50.4          19.8 R EM032673
     K06M10H  C2006 06 23.18774 16 11 31.99 -20 59 10.4                 EM032H36
     K06M10H  C2006 06 23.19534 16 11 30.62 -20 59 42.9          19.8 R EM032H36
     K06M10H 5C2006 06 23.20139 16 11 30.52 -21 00 05.2                 EM032673
     K06M10H  C2006 06 23.20377 16 11 28.91 -21 00 18.4                 EM032H36
     K06M10H 5C2006 06 23.20949 16 11 28.80 -21 00 40.4                 EM032673
     K06M10H 5C2006 06 23.22685 16 11 25.16 -21 01 55.6                 EM032673

Observer details:
644 Palomar Mountain/NEAT.  Observers M. Brown, R. Bambery, K. Lawrence,
    M. Hicks, E. Helin, R. Thicksten.  1.2-m Schmidt + CCD.
673 Table Mountain Observatory, Wrightwood.  Observer J. Young.  0.61-m f/16
    Cassegrain + CCD.
H36 Sandlot Observatory, Scranton.  Observer G. Hug.  0.30-m
    Schmidt-Cassegrain + CCD.
I77 CEAMIG-REA Observatory, Belo Horizonte.  Observers C. Jacques, E. Pimentel.
    Measurer C. Jacques.  0.30-m f/3.0 Schmidt-Cassegrain + CCD.
J95 Great Shefford.  Observer P. Birtwhistle.  0.40-m f/6.0 Schmidt-Cassegrain
    + CCD.

Orbital elements:
2006 MH10                                                Earth MOID = 0.1231 AU
Epoch 2006 Mar. 6.0 TT = JDT 2453800.5                  MPC
M 230.41716              (2000.0)            P               Q
n   0.69321278     Peri.  251.59866     +0.91158749     +0.34057485
a   1.2644209      Node    87.97137     -0.23246798     +0.88897827
e   0.1708855      Incl.   13.32054     -0.33906768     +0.30614769
P   1.42           H   22.3           G   0.15           U   9
Residuals in seconds of arc
060622 644  0.2+  0.1+    060623 I77  0.3-  0.5-    060623 H36  0.0   0.8-
060622 644  0.2+  0.2+    060623 I77  1.0-  0.4+    060623 673  0.0   0.2+
060622 644  0.0   0.3-    060623 I77  0.8-  0.5+    060623 H36  1.2+  0.1+
060622 J95  1.2+  0.3-    060623 673  0.7-  0.7-    060623 673  0.1+  0.3+
060622 J95  0.4+  0.1-    060623 H36 (3.4-  1.2-)   060623 673  0.9+  0.6+

Ephemeris:
2006 MH10                a,e,i = 1.26, 0.17, 13                  q = 1.0483
Date    TT    R. A. (2000) Decl.     Delta      r     Elong.  Phase     V
2006 06 24    16 08.91   -21 57.2    0.163    1.163   152.1    24.1    19.8
2006 07 04    15 36.20   -34 12.4    0.161    1.138   136.1    38.3    20.2
2006 07 14    15 06.17   -45 17.8    0.171    1.116   121.6    50.9    20.6
2006 07 24    14 41.86   -54 22.6    0.188    1.096   110.3    60.4    21.0
2006 08 03    14 24.80   -61 49.0    0.207    1.078   102.4    66.8    21.4
2006 08 13    14 14.81   -68 14.2    0.226    1.065    97.0    70.8    21.7
2006 08 23    14 12.52   -74 03.6    0.242    1.055    93.7    73.1    21.9
2006 09 02    14 23.63   -79 37.2    0.254    1.049    92.1    73.9    22.0
2006 09 12    15 21.85   -84 59.0    0.263    1.048    91.9    73.6    22.1
2006 09 22    21 30.44   -86 54.3    0.267    1.052    93.0    72.3    22.1
2006 10 02    00 01.90   -81 10.0    0.269    1.060    95.4    70.0    22.0
2006 10 12    00 31.10   -73 40.7    0.268    1.073    98.9    66.8    21.9
2006 10 22    00 43.43   -64 50.2    0.267    1.089   103.4    62.8    21.8
2006 11 01    00 52.15   -54 34.2    0.269    1.108   108.4    58.2    21.8
2006 11 11    01 00.70   -43 10.6    0.279    1.130   113.3    53.6    21.8
2006 11 21    01 10.22   -31 20.1    0.298    1.153   116.8    49.9    21.8
2006 12 01    01 21.42   -19 55.9    0.329    1.179   118.4    47.4    22.0
2006 12 11    01 34.47   -09 42.1    0.373    1.205   117.8    46.3    22.3
2006 12 21    01 49.36   -00 57.0    0.429    1.231   115.6    46.1    22.7

Timothy B. Spahr             (C) Copyright 2006 MPC           M.P.E.C. 2006-M32

Read MPEC 2006-M31 Read MPEC 2006-M33


Our Web policy. Index to the CBAT/MPC/ICQ pages.


Valid HTML 4.01!